This is the latest recevied weather packets stored in our database for station/object KF4WSW-13. If no packets are shown the sender has not sent any weather packets the latest 10 day(s).
| Time | Temp. | Humidity | Pressure | Rain* | Wind** | Luminosity | Snow |
|---|---|---|---|---|---|---|---|
| 1778016475 | 26.11° C | 70% | 1012.7 hPa | 0 mm | - | 141 W/m² | - |
| 1778016173 | 26.67° C | 70% | 1012.9 hPa | 0 mm | - | 165 W/m² | - |
| 1778015870 | 26.67° C | 68% | 1012.7 hPa | 0 mm | - | 223 W/m² | - |
| 1778015567 | 26.67° C | 66% | 1013 hPa | 0 mm | - | 214 W/m² | - |
| 1778015263 | 26.67° C | 68% | 1012.8 hPa | 0 mm | - | 213 W/m² | - |
| 1778014960 | 26.67° C | 67% | 1012.8 hPa | 0 mm | - | 284 W/m² | - |
| 1778014658 | 26.67° C | 68% | 1012.7 hPa | 0 mm | - | 350 W/m² | - |
| 1778014356 | 26.67° C | 68% | 1012.8 hPa | 0 mm | - | 294 W/m² | - |
| 1778014052 | 26.67° C | 68% | 1013 hPa | 0 mm | - | 419 W/m² | - |
| 1778013750 | 26.67° C | 67% | 1012.8 hPa | 0 mm | - | 305 W/m² | - |
| 1778013447 | 27.22° C | 66% | 1012.7 hPa | 0 mm | - | 409 W/m² | - |
| 1778013144 | 27.22° C | 66% | 1012.9 hPa | 0 mm | - | 422 W/m² | - |
| 1778012839 | 26.67° C | 67% | 1013.1 hPa | 0 mm | - | 502 W/m² | - |
| 1778012536 | 26.67° C | 66% | 1012.9 hPa | 0 mm | - | 422 W/m² | - |
| 1778012232 | 26.67° C | 68% | 1013.1 hPa | 0 mm | - | 385 W/m² | - |
| 1778011930 | 27.22° C | 65% | 1013.1 hPa | 0 mm | - | 367 W/m² | - |
| 1778011628 | 27.22° C | 65% | 1013.2 hPa | 0 mm | - | 417 W/m² | - |
| 1778011325 | 27.78° C | 64% | 1013.3 hPa | 0 mm | - | 380 W/m² | - |
| 1778011021 | 27.78° C | 63% | 1013.2 hPa | 0 mm | - | 438 W/m² | - |
| 1778010718 | 27.78° C | 64% | 1013.1 hPa | 0 mm | - | 448 W/m² | - |
| 1778010415 | 27.78° C | 64% | 1013.2 hPa | 0 mm | - | 578 W/m² | - |
| 1778010111 | 27.78° C | 64% | 1013.3 hPa | 0 mm | - | 664 W/m² | - |
| 1778009808 | 28.33° C | 62% | 1013.4 hPa | 0 mm | - | 676 W/m² | - |
| 1778009505 | 27.78° C | 64% | 1013.5 hPa | 0 mm | - | 587 W/m² | - |
| 1778009204 | 27.78° C | 63% | 1013.4 hPa | 0 mm | - | 654 W/m² | - |
* Rain latest hour (hover to see other rain measurements)
** Current wind speed in m/s (hover to see current wind gust speed)